Starlink 30152

operational
NORAD ID: 56828 Int'l Des: 2023-079 Owner: SPXS Country: US Constellation: starlink
LEOCIRCULAR

About Starlink 30152

Description loading...

Live Position

Loading 3D Globe...

Upcoming Passes

Altitude History

Altitude vs Time

uPlot chart will show altitude changes over time

Two-Line Element Set

1 56828U 23079F 25305.11087796 -.00000747 00000-0 -40231-4 0 9998
2 56828 43.0048 85.9624 0001299 271.4799 88.5895 15.02536220133549
Epoch: Nov 1, 2025 • Age: 34 hours

Current Status

Altitude 558.6 km
Velocity 7.58 km/s
Sub-Earth Point 14.84°N, 6.77°E
Launch Date Jun 4, 2023
Age 2.4 years
Type internet

Technical Details

Classification Payload
Mass 730.00 kg
Dry Mass 700.00 kg
Total Mass 730.00 kg
Length 0.30 m
Diameter 4.10 m
Span 29.00 m
Shape Box + pan
Manufacturer SPXS
Bus Type Starlink V2M
Phase Status In Orbit
Owner/State SPXS/US

Large Constellations

Loading constellations...